Airfield :
LOGIN :

Register | Disclaimer

   EN    FR    IT 

 










Legend :    VFR   Marginal VFR   IFR   Intensive IFR   Very Intensive IFR
Visi :
Ceiling :
>= 8 km
>= 3000ft
5 to 8 km
1000 to 3000 ft
1500m to 5 km
500 to 1000 ft
800 to 1500m
200 to 500 ft
< 800m
< 200 ft
Symbols :   Thunderstorms  Fog  Heavy snow  Heavy precipitations  Wind > 20 kt
SIGMETs :     Misc.  Thunderstorms  Icing  Turbulence  Mountain Waves  Volcanic Ashes






- Airport Elevation : 2945 ft
- IATA code : RGS


LEBG - Burgos

CURRENT METAR :
  • 231730Z 23005KT CAVOK 10/00 Q1022

EXPIRED METARs :
  • 231700Z 24004KT CAVOK 13/M00 Q1022
  • 231630Z 25004KT CAVOK 15/M01 Q1022
  • 231600Z 26006KT 220V290 CAVOK 15/M01 Q1022
  • 231530Z 25005KT 190V300 CAVOK 15/00 Q1022
  • 231500Z 23004KT 180V280 CAVOK 15/M02 Q1022

TAF TAF LEBG
Valid from the 23 at 15:00 until the 24 at 15:00 UTC


231400Z 2315/2415 VRB05KT CAVOK TX17/2315Z TNM01/2406Z
PROB40
TEMPO 2408/2415 23010KT



MET'MAP, your aeronautical weather chart ! - Copyright ORBIFLY December 2007 - Disclaimer

ORBIFLY MET'MAP TEAM :

Programming & Development : Alexandra Zaïnal
Concept & original design : Baudouin d'Aumeries
Assistance for programming : Marc-Olivier Méhu
Technical & hardware support : Manuel Goepfert

Contact : metmap@orbifly.com




SOURCES & CREDITS :

   NOAA